Location: Sungai Ketit
(2.6833°N, 113.2333°E)
Time: 20:44:17
(UTC+00:00)

Cosmos 2150 Rocket - Pass Details

Date: 23 May 2024
Orbit: 747 x 806 km, 74.0° (Epoch: 19 June)

Event Time Altitude Azimuth Distance (km) Brightness Sun altitude
Rises 11:07:28 0° 351° (N) 3,285 7.7 -9.2°
Reaches altitude 10° 11:09:52 10° 354° (N) 2,363 6.9 -9.8°
Maximum altitude 11:15:14 72° 77° (ENE) 843 4.1 -11.0°
Drops below altitude 10° 11:20:40 10° 162° (SSE) 2,383 6.2 -12.3°
Enters shadow 11:22:33 - 163° (SSE) 3,110 6.8 -12.7°
